Regional Weather Roundup
Issued by NWS

Home | Current Version | Previous Version | Text Only | Print | Product List | Glossary On
Versions: 1 2 3 4 5 6 7 8 9 10 11 12 13 14 15 16 17 18 19 20 21 22 23 24 25 26 27 28 29 30 31 32 33 34 35 36 37 38 39 40 41 42 43 44 45 46 47 48 49 50
000
ASUS43 KTOP 161308
RWRKS

WEATHER ROUNDUP FOR KANSAS
NATIONAL WEATHER SERVICE GOODLAND KS
800 AM CDT TUE SEP 16 2014

NOTE:  "FAIR" INDICATES FEW OR NO CLOUDS BELOW 12,000 FEET WITH NO
SIGNIFICANT WEATHER AND/OR OBSTRUCTIONS TO VISIBILITY.

KSZ001>006-013>018-027>032-041>047-161400-
NORTHWEST KANSAS

CITY           SKY/WX    TMP DP  RH WIND       PRES   REMARKS
GOODLAND       CLOUDY    58  53  84 SW12      30.18S
HAYS           CLOUDY    52  46  82 SE8       30.23S
HILL CITY      CLOUDY    52  48  86 NE3       30.22S
RUSSELL        CLOUDY    51  49  92 SE7       30.22S
$$

KSZ061>065-074>080-084>089-161400-
SOUTHWEST KANSAS

CITY           SKY/WX    TMP DP  RH WIND       PRES   REMARKS
DODGE CITY     CLOUDY    57  53  86 SE7       30.22S
ELKHART          N/A     58  55  90 S6          N/A
GARDEN CITY    CLOUDY    59  56  89 S7        30.21S
GREAT BEND     CLOUDY    54  48  82 E8        30.23F
LIBERAL        CLOUDY    61  54  77 SE7       30.23S
PRATT          CLOUDY    55  50  82 E7        30.23S
$$

KSZ066>073-081>083-090>101-161400-
SOUTHEAST KANSAS

CITY           SKY/WX    TMP DP  RH WIND       PRES   REMARKS
CHANUTE        CLOUDY    58  51  78 NE8       30.21S
COFFEYVILLE    CLOUDY    60  55  83 N8        30.20S
HUTCHINSON     MOCLDY    56  50  80 NE8       30.23S
MEDICINE LODGE   N/A     62  54  74 NE5       30.21R
NEWTON         MOCLDY    54  45  71 E6        30.24S
PARSONS        CLOUDY    60  53  77 N6        30.22R
WICHITA INTL   CLOUDY    60  51  72 NE8       30.21S
WICHITA JABRA  CLOUDY    56  51  84 NE12      30.21S
WICHITA MCCONL CLOUDY    59  53  82 E7        30.21S
WINFIELD       CLOUDY    61  55  81 NE7       30.21S
$$

KSZ007>012-019>026-033>040-048>060-102>105-161400-
NORTHEAST KANSAS

CITY           SKY/WX    TMP DP  RH WIND       PRES   REMARKS
CONCORDIA      CLEAR     46  45  96 E5        30.24S
EMPORIA        PTCLDY    48  48 100 N5        30.24S FOG
LAWRENCE       SUNNY     47  45  93 CALM      30.25S
MANHATTAN      CLEAR     46  44  93 CALM      30.25S
MARYSVILLE     CLEAR     45  43  93 CALM      30.25R
OLATHE IND     SUNNY     48  48 100 CALM      30.25R
OLATHE EXE     SUNNY     50  48  93 NE6       30.24R
SALINA         CLEAR     50  47  89 CALM      30.25S
TOPEKA BILLARD CLEAR     48  47  96 NW3       30.26R
TOPEKA FORBES  CLEAR     46  45  96 NW3       30.25R
$$


USA.gov is the U.S. government's official web portal to all federal, state and local government web resources and services.